DateTimeUTC,F1_A11,F1_S11,BsB_S11,BsG_S11,BsR_S11,BbsB_S11,BbsG_S11,BbsR_S11,BaB_A11,BaG_A11,BaR_A11,Tu_S11,T_S11,Uu_S11,U_S11,P_S11,T1_A11
2021-03-11T20:00:00Z,00000200,21000000,,,,,,,-000.14,-000.33,-000.13,16.9,24.7,,00.0,0638.4,31.0
2021-03-11T20:01:00Z,00000200,21000000,,,,,,,0000.04,-000.10,-000.20,17.0,24.7,,00.0,0638.4,31.0
2021-03-11T20:02:00Z,00000200,21000000,,,,,,,-000.32,0000.08,-000.00,17.0,24.7,,00.0,0638.4,30.9
2021-03-11T20:03:00Z,00000200,61000000,,,,,,,0000.64,0000.32,0000.32,17.0,24.7,,00.0,0638.4,31.0
2021-03-11T20:04:00Z,00000200,41000000,0002.54,0001.62,0001.01,0000.11,0000.29,0000.03,0000.59,0000.54,0000.81,17.4,24.6,,00.0,0639.3,31.0
2021-03-11T20:05:00Z,00000200,01000000,0002.03,0001.59,0000.87,0000.28,0000.30,-000.09,0000.76,0000.83,-000.05,17.4,24.6,,00.0,0639.3,30.9
2021-03-11T20:06:00Z,00000200,01000000,0002.42,0001.73,0000.85,0000.01,0000.55,0000.31,0000.77,0000.64,0000.80,17.4,24.6,,00.0,0639.3,30.9
2021-03-11T20:07:00Z,00000200,01000000,0001.87,0001.94,0001.12,0000.12,0000.28,0000.03,0000.76,0000.72,0000.32,17.3,24.5,,00.0,0639.3,30.9
2021-03-11T20:08:00Z,00000200,01000000,0002.71,0001.81,0000.98,0000.63,0000.44,-000.06,0000.51,0000.78,0000.55,17.3,24.5,,00.0,0639.3,30.9
2021-03-11T20:09:00Z,00000200,01000000,0002.54,0001.83,0000.74,0000.25,0000.55,0000.03,0000.49,-000.05,0000.13,17.3,24.5,,00.0,0639.3,30.9
2021-03-11T20:10:00Z,00000200,01000000,0002.35,0001.59,0001.18,0000.44,0000.27,0000.06,0000.52,0000.59,0000.03,17.2,24.4,,00.0,0639.4,30.9
2021-03-11T20:11:00Z,00000200,01000000,0002.82,0001.70,0001.14,-000.02,0000.39,0000.10,0000.76,0000.25,0000.72,17.2,24.4,,00.0,0639.4,30.9
2021-03-11T20:12:00Z,00000200,01000000,0002.27,0001.87,0000.79,0000.32,0000.17,0000.11,0000.10,0000.27,0000.09,17.1,24.4,,00.0,0639.4,30.9
2021-03-11T20:13:00Z,00000200,01000000,0001.96,0001.46,0000.69,0000.41,0000.42,0000.03,0000.95,0000.66,0000.74,17.2,24.4,,00.0,0639.4,30.9
2021-03-11T20:14:00Z,00000200,01000000,0002.56,0001.60,0000.78,0000.44,0000.39,-000.05,0000.77,0000.82,0000.56,17.2,24.4,,00.0,0639.3,30.9
2021-03-11T20:15:00Z,00000200,01000000,0002.02,0001.39,0001.00,0000.36,0000.21,0000.34,0000.28,0000.61,0000.13,17.3,24.4,,00.0,0639.3,30.9
2021-03-11T20:16:00Z,00000200,01000000,0002.50,0001.37,0001.42,0000.04,0000.14,0000.35,0000.59,0000.49,0000.57,17.3,24.4,,00.0,0639.4,31.0
2021-03-11T20:17:00Z,00000200,01000000,0002.93,0001.42,0000.93,0000.25,0000.40,0000.13,0001.03,0000.81,0000.46,17.4,24.5,,00.0,0639.4,31.0
2021-03-11T20:18:00Z,00000200,01000000,0002.19,0001.39,0000.68,0000.42,0000.13,0000.18,0000.15,0000.52,0000.30,17.4,24.5,,00.0,0639.4,31.0
2021-03-11T20:19:00Z,00000200,01000000,0002.88,0001.39,0001.01,0000.12,0000.28,0000.36,0000.64,0000.35,0000.14,17.4,24.5,,00.0,0639.4,30.9
2021-03-11T20:20:00Z,00000200,01000000,0002.23,0001.55,0000.98,0000.05,0000.21,0000.25,0000.72,0000.85,0001.05,17.3,24.5,,00.0,0639.4,30.9
2021-03-11T20:21:00Z,00000200,01000000,0002.81,0001.92,0000.96,0000.12,0000.15,0000.18,0000.78,0000.21,0000.30,17.3,24.4,,00.0,0639.3,30.9
2021-03-11T20:22:00Z,00000200,01000000,0002.25,0001.76,0000.80,0000.05,0000.38,0000.08,0000.89,0001.02,0000.35,17.3,24.4,,00.0,0639.4,30.9
2021-03-11T20:23:00Z,00000200,01000000,0002.61,0002.00,0000.81,0000.02,0000.26,0000.22,0000.41,0000.52,0000.55,17.2,24.4,,00.0,0639.4,30.9
2021-03-11T20:24:00Z,00000200,01000000,0002.69,0001.73,0001.15,-000.05,0000.44,-000.02,0000.69,0000.31,0000.18,17.2,24.4,,00.0,0639.4,30.9
2021-03-11T20:25:00Z,00000200,01000000,0002.58,0001.93,0000.90,0000.56,0000.35,0000.18,0000.39,0000.78,0000.30,17.1,24.4,,00.0,0639.4,30.9
2021-03-11T20:26:00Z,00000200,01000000,0002.79,0001.64,0000.66,0000.18,0000.24,0000.07,0001.08,0000.51,0000.75,17.1,24.3,,00.0,0639.4,30.9
2021-03-11T20:27:00Z,00000200,01000000,0002.11,0001.70,0001.16,0000.33,0000.43,0000.04,0000.30,-000.01,0000.42,17.0,24.3,,00.0,0639.4,30.9
2021-03-11T20:28:00Z,00000200,01000000,0002.79,0001.70,0000.81,0000.93,0000.35,0000.12,0000.71,0000.71,0000.38,17.1,24.3,,00.0,0639.4,30.9
2021-03-11T20:29:00Z,00000200,01000000,0002.74,0001.60,0001.00,0000.37,0000.49,0000.16,0001.15,0001.14,0000.48,17.1,24.3,,00.0,0639.4,30.9
2021-03-11T20:30:00Z,00000200,01000000,0002.61,0001.85,0001.29,-000.18,0000.43,0000.29,0000.28,0000.40,0000.34,17.2,24.3,,00.0,0639.4,30.9
2021-03-11T20:31:00Z,00000200,01000000,0002.60,0001.90,0001.28,0000.61,0000.32,0000.12,0000.49,0000.51,0000.92,17.3,24.3,,00.0,0639.4,30.9
2021-03-11T20:32:00Z,00000200,01000000,0002.79,0001.85,0001.05,0000.15,0000.33,0000.33,0000.92,0000.94,0000.12,17.4,24.4,,00.0,0639.4,31.0
2021-03-11T20:33:00Z,00000200,01000000,0002.84,0001.93,0000.99,0000.55,0000.52,-000.04,0000.90,0000.53,0000.55,17.4,24.4,,00.0,0639.4,31.0
2021-03-11T20:34:00Z,00000200,01000000,0003.37,0002.16,0000.96,0000.00,0000.37,0000.15,0001.05,0001.13,0000.53,17.4,24.4,,00.0,0639.4,31.0
2021-03-11T20:35:00Z,00000200,01000000,0003.23,0001.74,0001.34,0000.14,0000.21,0000.14,0000.83,0000.78,0000.64,17.4,24.4,,00.0,0639.4,30.9
2021-03-11T20:36:00Z,00000200,01000000,0002.61,0001.98,0001.13,0000.28,0000.29,0000.36,0000.52,0000.27,0000.40,17.3,24.4,,00.0,0639.4,30.9
2021-03-11T20:37:00Z,00000200,01000000,0003.46,0001.98,0001.16,0000.11,0000.23,0000.18,0000.77,0001.00,0000.58,17.3,24.4,,00.0,0639.4,30.9
2021-03-11T20:38:00Z,00000200,01000000,0002.53,0002.18,0000.83,0000.55,0000.52,-000.21,0000.75,0000.55,0000.73,17.3,24.4,,00.0,0639.4,30.9
2021-03-11T20:39:00Z,00000200,01000000,0002.92,0001.96,0000.83,0000.07,0000.43,-000.02,0000.84,0000.70,0000.10,17.2,24.3,,00.0,0639.4,30.9
2021-03-11T20:40:00Z,00000200,01000000,0002.56,0002.01,0001.21,0000.25,0000.46,0000.12,0000.63,0000.48,0000.63,17.2,24.3,,00.0,0639.4,30.9
2021-03-11T20:41:00Z,00000200,01000000,0002.55,0001.80,0000.95,0000.47,0000.65,0000.20,0000.78,0000.69,0000.76,17.1,24.3,,00.0,0639.4,30.9
2021-03-11T20:42:00Z,00000200,01000000,0002.42,0001.95,0001.17,0000.64,0000.36,0000.13,0000.47,0000.58,0000.48,17.1,24.3,,00.0,0639.4,30.9
2021-03-11T20:43:00Z,00000200,01000000,0002.34,0001.93,0000.96,0000.07,0000.32,0000.04,0001.14,0000.90,0000.66,17.1,24.2,,00.0,0639.4,30.9
2021-03-11T20:44:00Z,00000200,01000000,0002.35,0002.19,0000.99,0000.57,0000.36,0000.16,0000.96,0000.53,0000.52,17.1,24.2,,00.0,0639.4,30.9
2021-03-11T20:45:00Z,00000200,01000000,0002.84,0001.80,0001.11,0000.52,0000.39,0000.08,0000.61,0000.90,0000.41,17.2,24.3,,00.0,0639.4,30.9
2021-03-11T20:46:00Z,00000200,01000000,0002.67,0001.84,0001.18,0000.46,0000.31,0000.28,0000.68,0000.90,0000.46,17.3,24.3,,00.0,0639.4,30.9
2021-03-11T20:47:00Z,00000200,01000000,0002.99,0002.17,0001.15,0000.14,0000.37,0000.12,0000.69,0000.40,0000.35,17.4,24.4,,00.0,0639.4,31.0
2021-03-11T20:48:00Z,00000200,01000000,0003.08,0002.04,0001.21,0000.55,0000.48,0000.17,0000.69,0000.79,0001.03,17.4,24.4,,00.0,0639.4,31.0
2021-03-11T20:49:00Z,00000200,01000000,0002.43,0002.01,0001.00,0000.31,0000.37,0000.04,0000.83,0000.91,0000.32,17.5,24.4,,00.0,0639.3,31.0
2021-03-11T20:50:00Z,00000200,01000000,0002.84,0002.00,0001.25,0000.56,0000.36,0000.17,0000.87,0000.87,0000.50,17.5,24.4,,00.0,0639.3,31.0
2021-03-11T20:51:00Z,00000200,01000000,0002.95,0002.06,0001.17,0000.21,0000.41,0000.27,0000.97,0000.51,0000.42,17.4,24.4,,00.0,0639.3,31.0
2021-03-11T20:52:00Z,00000200,01000000,0002.86,0002.06,0001.08,-000.07,0000.32,0000.17,0000.48,0000.42,0000.56,17.4,24.4,,00.0,0639.3,30.9
2021-03-11T20:53:00Z,00000200,01000000,0002.81,0001.87,0000.96,0000.27,0000.66,-000.02,0001.09,0000.56,0000.44,17.3,24.4,,00.0,0639.3,30.9
2021-03-11T20:54:00Z,00000200,01000000,0003.46,0001.97,0001.02,0000.30,0000.39,0000.28,0000.79,0000.92,0000.57,17.3,24.4,,00.0,0639.3,30.9
2021-03-11T20:55:00Z,00000200,01000000,0003.22,0002.13,0001.09,0000.12,0000.39,0000.20,0000.88,0001.04,0000.69,17.2,24.3,,00.0,0639.3,30.9
2021-03-11T20:56:00Z,00000200,01000000,0002.94,0001.66,0001.18,0000.70,0000.33,0000.04,0000.73,0000.93,0000.64,17.2,24.3,,00.0,0639.3,30.9
2021-03-11T20:57:00Z,00000200,41000000,,,,,,,0000.57,0000.07,0000.32,17.2,24.4,,00.0,0639.3,30.9
2021-03-11T20:58:00Z,00000200,61000000,,,,,,,-000.27,0000.06,-000.34,16.8,24.4,,00.0,0638.3,30.9
2021-03-11T20:59:00Z,00000200,21000000,,,,,,,0000.09,-000.39,-000.11,16.8,24.5,,00.0,0638.3,30.9
